Year,Month,Day,Hour,Minute,Value (Times are PST for temperature in C)
2006,05,14,00,00,10.00
2006,05,14,00,01,9.90
2006,05,14,00,02,9.90
2006,05,14,00,03,9.90
2006,05,14,00,04,9.90
2006,05,14,00,05,9.80
2006,05,14,00,06,9.80
2006,05,14,00,07,9.70
2006,05,14,00,08,9.70
2006,05,14,00,09,9.70
2006,05,14,00,10,9.70
2006,05,14,00,11,9.60
2006,05,14,00,12,9.60
2006,05,14,00,13,9.50
2006,05,14,00,14,9.50
2006,05,14,00,15,9.40
2006,05,14,00,16,9.40
2006,05,14,00,17,9.40
2006,05,14,00,18,9.30
2006,05,14,00,19,9.30
2006,05,14,00,20,9.30
2006,05,14,00,21,9.20
2006,05,14,00,22,9.20
2006,05,14,00,23,9.20
2006,05,14,00,24,9.20
2006,05,14,00,25,9.20
2006,05,14,00,26,9.20
2006,05,14,00,27,9.20
2006,05,14,00,28,9.10
2006,05,14,00,29,9.10
2006,05,14,00,30,9.10
2006,05,14,00,31,9.10
2006,05,14,00,32,9.00
2006,05,14,00,33,9.00
2006,05,14,00,34,9.00
2006,05,14,00,35,9.00
2006,05,14,00,36,9.00
2006,05,14,00,37,8.90
2006,05,14,00,38,8.90
2006,05,14,00,39,8.90
2006,05,14,00,40,8.90
2006,05,14,00,41,8.90
2006,05,14,00,42,8.80
2006,05,14,00,43,8.80
2006,05,14,00,44,8.80
2006,05,14,00,45,8.80
2006,05,14,00,46,8.80
2006,05,14,00,47,8.70
2006,05,14,00,48,8.70
2006,05,14,00,49,8.70
2006,05,14,00,50,8.70
2006,05,14,00,51,8.70
2006,05,14,00,52,8.70
2006,05,14,00,53,8.70
2006,05,14,00,54,8.70
2006,05,14,00,55,8.70
2006,05,14,00,56,8.70
2006,05,14,00,57,8.70
2006,05,14,00,58,8.60
2006,05,14,00,59,8.60
2006,05,14,01,00,8.60
2006,05,14,01,01,8.60
2006,05,14,01,02,8.60
2006,05,14,01,03,8.60
2006,05,14,01,04,8.60
2006,05,14,01,05,8.50
2006,05,14,01,06,8.50
2006,05,14,01,07,8.50
2006,05,14,01,08,8.50
2006,05,14,01,09,8.50
2006,05,14,01,10,8.50
2006,05,14,01,11,8.40
2006,05,14,01,12,8.40
2006,05,14,01,13,8.40
2006,05,14,01,14,8.40
2006,05,14,01,15,8.40
2006,05,14,01,16,8.40
2006,05,14,01,17,8.40
2006,05,14,01,18,8.40
2006,05,14,01,19,8.40
2006,05,14,01,20,8.30
2006,05,14,01,21,8.30
2006,05,14,01,22,8.30
2006,05,14,01,23,8.20
2006,05,14,01,24,8.20
2006,05,14,01,25,8.20
2006,05,14,01,26,8.10
2006,05,14,01,27,8.00
2006,05,14,01,28,7.90
2006,05,14,01,29,7.90
2006,05,14,01,30,7.80
2006,05,14,01,31,7.80
2006,05,14,01,32,7.80
2006,05,14,01,33,7.80
2006,05,14,01,34,7.80
2006,05,14,01,35,7.70
2006,05,14,01,36,7.70
2006,05,14,01,37,7.70
2006,05,14,01,38,7.70
2006,05,14,01,39,7.70
2006,05,14,01,40,7.70
2006,05,14,01,41,7.70
2006,05,14,01,42,7.70
2006,05,14,01,43,7.70
2006,05,14,01,44,7.70
2006,05,14,01,45,7.70
2006,05,14,01,46,7.80
2006,05,14,01,47,7.80
2006,05,14,01,48,7.80
2006,05,14,01,49,7.80
2006,05,14,01,50,7.80
2006,05,14,01,51,7.80
2006,05,14,01,52,7.80
2006,05,14,01,53,7.80
2006,05,14,01,54,7.80
2006,05,14,01,55,7.80
2006,05,14,01,56,7.80
2006,05,14,01,57,7.80
2006,05,14,01,58,7.80
2006,05,14,01,59,7.80
2006,05,14,02,00,7.80
2006,05,14,02,01,7.80
2006,05,14,02,02,7.80
2006,05,14,02,03,7.80
2006,05,14,02,04,7.80
2006,05,14,02,05,7.80
2006,05,14,02,06,7.70
2006,05,14,02,07,7.70
2006,05,14,02,08,7.70
2006,05,14,02,09,7.70
2006,05,14,02,10,7.60
2006,05,14,02,11,7.60
2006,05,14,02,12,7.60
2006,05,14,02,13,7.60
2006,05,14,02,14,7.60
2006,05,14,02,15,7.50
2006,05,14,02,16,7.50
2006,05,14,02,17,7.50
2006,05,14,02,18,7.50
2006,05,14,02,19,7.40
2006,05,14,02,20,7.40
2006,05,14,02,21,7.40
2006,05,14,02,22,7.40
2006,05,14,02,23,7.30
2006,05,14,02,24,7.30
2006,05,14,02,25,7.30
2006,05,14,02,26,7.30
2006,05,14,02,27,7.30
2006,05,14,02,28,7.30
2006,05,14,02,29,7.30
2006,05,14,02,30,7.30
2006,05,14,02,31,7.30
2006,05,14,02,32,7.30
2006,05,14,02,33,7.30
2006,05,14,02,34,7.40
2006,05,14,02,35,7.40
2006,05,14,02,36,7.40
2006,05,14,02,37,7.50
2006,05,14,02,38,7.50
2006,05,14,02,39,7.50
2006,05,14,02,40,7.50
2006,05,14,02,41,7.50
2006,05,14,02,42,7.50
2006,05,14,02,43,7.50
2006,05,14,02,44,7.50
2006,05,14,02,45,7.50
2006,05,14,02,46,7.50
2006,05,14,02,47,7.50
2006,05,14,02,48,7.40
2006,05,14,02,49,7.40
2006,05,14,02,50,7.40
2006,05,14,02,51,7.40
2006,05,14,02,52,7.40
2006,05,14,02,53,7.30
2006,05,14,02,54,7.30
2006,05,14,02,55,7.30
2006,05,14,02,56,7.30
2006,05,14,02,57,7.30
2006,05,14,02,58,7.30
2006,05,14,02,59,7.20
2006,05,14,03,00,7.20
2006,05,14,03,01,7.20
2006,05,14,03,02,7.20
2006,05,14,03,03,7.20
2006,05,14,03,04,7.10
2006,05,14,03,05,7.10
2006,05,14,03,06,7.10
2006,05,14,03,07,7.10
2006,05,14,03,08,7.10
2006,05,14,03,09,7.10
2006,05,14,03,10,7.10
2006,05,14,03,11,7.10
2006,05,14,03,12,7.10
2006,05,14,03,13,7.10
2006,05,14,03,14,7.10
2006,05,14,03,15,7.00
2006,05,14,03,16,7.00
2006,05,14,03,17,7.00
2006,05,14,03,18,7.00
2006,05,14,03,19,7.00
2006,05,14,03,20,7.00
2006,05,14,03,21,7.00
2006,05,14,03,22,6.90
2006,05,14,03,23,6.90
2006,05,14,03,24,6.90
2006,05,14,03,25,6.90
2006,05,14,03,26,6.80
2006,05,14,03,27,6.80
2006,05,14,03,28,6.80
2006,05,14,03,29,6.80
2006,05,14,03,30,6.80
2006,05,14,03,31,6.70
2006,05,14,03,32,6.70
2006,05,14,03,33,6.60
2006,05,14,03,34,6.60
2006,05,14,03,35,6.60
2006,05,14,03,36,6.60
2006,05,14,03,37,6.60
2006,05,14,03,38,6.50
2006,05,14,03,39,6.40
2006,05,14,03,40,6.40
2006,05,14,03,41,6.40
2006,05,14,03,42,6.40
2006,05,14,03,43,6.40
2006,05,14,03,44,6.40
2006,05,14,03,45,6.40
2006,05,14,03,46,6.40
2006,05,14,03,47,6.40
2006,05,14,03,48,6.40
2006,05,14,03,49,6.40
2006,05,14,03,50,6.40
2006,05,14,03,51,6.30
2006,05,14,03,52,6.30
2006,05,14,03,53,6.30
2006,05,14,03,54,6.20
2006,05,14,03,55,6.20
2006,05,14,03,56,6.20
2006,05,14,03,57,6.20
2006,05,14,03,58,6.20
2006,05,14,03,59,6.10
2006,05,14,04,00,6.10
2006,05,14,04,01,6.10
2006,05,14,04,02,6.00
2006,05,14,04,03,6.00
2006,05,14,04,04,6.00
2006,05,14,04,05,6.00
2006,05,14,04,06,5.90
2006,05,14,04,07,5.90
2006,05,14,04,08,5.90
2006,05,14,04,09,5.80
2006,05,14,04,10,5.80
2006,05,14,04,11,5.80
2006,05,14,04,12,5.80
2006,05,14,04,13,5.80
2006,05,14,04,14,5.70
2006,05,14,04,15,5.70
2006,05,14,04,16,5.70
2006,05,14,04,17,5.70
2006,05,14,04,18,5.70
2006,05,14,04,19,5.70
2006,05,14,04,20,5.70
2006,05,14,04,21,5.80
2006,05,14,04,22,5.80
2006,05,14,04,23,5.80
2006,05,14,04,24,5.80
2006,05,14,04,25,5.80
2006,05,14,04,26,5.80
2006,05,14,04,27,5.80
2006,05,14,04,28,5.80
2006,05,14,04,29,5.80
2006,05,14,04,30,5.90
2006,05,14,04,31,5.90
2006,05,14,04,32,5.90
2006,05,14,04,33,5.90
2006,05,14,04,34,6.00
2006,05,14,04,35,6.00
2006,05,14,04,36,6.00
2006,05,14,04,37,6.10
2006,05,14,04,38,6.10
2006,05,14,04,39,6.10
2006,05,14,04,40,6.10
2006,05,14,04,41,6.10
2006,05,14,04,42,6.10
2006,05,14,04,43,6.10
2006,05,14,04,44,6.10
2006,05,14,04,45,6.10
2006,05,14,04,46,6.10
2006,05,14,04,47,6.10
2006,05,14,04,48,6.10
2006,05,14,04,49,6.10
2006,05,14,04,50,6.10
2006,05,14,04,51,6.10
2006,05,14,04,52,6.10
2006,05,14,04,53,6.10
2006,05,14,04,54,6.00
2006,05,14,04,55,6.00
2006,05,14,04,56,6.00
2006,05,14,04,57,6.00
2006,05,14,04,58,6.00
2006,05,14,04,59,5.90
2006,05,14,05,00,5.90
2006,05,14,05,01,5.90
2006,05,14,05,02,5.90
2006,05,14,05,03,5.80
2006,05,14,05,04,5.80
2006,05,14,05,05,5.80
2006,05,14,05,06,5.70
2006,05,14,05,07,5.70
2006,05,14,05,08,5.70
2006,05,14,05,09,5.70
2006,05,14,05,10,5.70
2006,05,14,05,11,5.70
2006,05,14,05,12,5.60
2006,05,14,05,13,5.60
2006,05,14,05,14,5.60
2006,05,14,05,15,5.50
2006,05,14,05,16,5.50
2006,05,14,05,17,5.50
2006,05,14,05,18,5.40
2006,05,14,05,19,5.40
2006,05,14,05,20,5.40
2006,05,14,05,21,5.30
2006,05,14,05,22,5.30
2006,05,14,05,23,5.30
2006,05,14,05,24,5.30
2006,05,14,05,25,5.30
2006,05,14,05,26,5.30
2006,05,14,05,27,5.30
2006,05,14,05,28,5.30
2006,05,14,05,29,5.30
2006,05,14,05,30,5.30
2006,05,14,05,31,5.30
2006,05,14,05,32,5.30
2006,05,14,05,33,5.40
2006,05,14,05,34,5.40
2006,05,14,05,35,5.40
2006,05,14,05,36,5.50
2006,05,14,05,37,5.50
2006,05,14,05,38,5.50
2006,05,14,05,39,5.50
2006,05,14,05,40,5.50
2006,05,14,05,41,5.50
2006,05,14,05,42,5.50
2006,05,14,05,43,5.50
2006,05,14,05,44,5.50
2006,05,14,05,45,5.60
2006,05,14,05,46,5.60
2006,05,14,05,47,5.60
2006,05,14,05,48,5.60
2006,05,14,05,49,5.60
2006,05,14,05,50,5.60
2006,05,14,05,51,5.60
2006,05,14,05,52,5.60
2006,05,14,05,53,5.60
2006,05,14,05,54,5.60
2006,05,14,05,55,5.60
2006,05,14,05,56,5.60
2006,05,14,05,57,5.70
2006,05,14,05,58,5.70
2006,05,14,05,59,5.70
2006,05,14,06,00,5.70
2006,05,14,06,01,5.70
2006,05,14,06,02,5.70
2006,05,14,06,03,5.80
2006,05,14,06,04,5.80
2006,05,14,06,05,5.80
2006,05,14,06,06,5.80
2006,05,14,06,07,5.80
2006,05,14,06,08,5.90
2006,05,14,06,09,5.90
2006,05,14,06,10,5.90
2006,05,14,06,11,5.90
2006,05,14,06,12,5.90
2006,05,14,06,13,6.00
2006,05,14,06,14,6.00
2006,05,14,06,15,6.10
2006,05,14,06,16,6.20
2006,05,14,06,17,6.20
2006,05,14,06,18,6.20
2006,05,14,06,19,6.20
2006,05,14,06,20,6.30
2006,05,14,06,21,6.30
2006,05,14,06,22,6.40
2006,05,14,06,23,6.40
2006,05,14,06,24,6.50
2006,05,14,06,25,6.60
2006,05,14,06,26,6.60
2006,05,14,06,27,6.60
2006,05,14,06,28,6.70
2006,05,14,06,29,6.80
2006,05,14,06,30,6.80
2006,05,14,06,31,6.80
2006,05,14,06,32,6.80
2006,05,14,06,33,6.80
2006,05,14,06,34,6.80
2006,05,14,06,35,6.90
2006,05,14,06,36,6.90
2006,05,14,06,37,6.90
2006,05,14,06,38,6.90
2006,05,14,06,39,7.00
2006,05,14,06,40,7.00
2006,05,14,06,41,7.00
2006,05,14,06,42,7.00
2006,05,14,06,43,7.00
2006,05,14,06,44,7.00
2006,05,14,06,45,7.10
2006,05,14,06,46,7.10
2006,05,14,06,47,7.10
2006,05,14,06,48,7.10
2006,05,14,06,49,7.20
2006,05,14,06,50,7.20
2006,05,14,06,51,7.20
2006,05,14,06,52,7.30
2006,05,14,06,53,7.30
2006,05,14,06,54,7.30
2006,05,14,06,55,7.30
2006,05,14,06,56,7.40
2006,05,14,06,57,7.40
2006,05,14,06,58,7.50
2006,05,14,06,59,7.50
2006,05,14,07,00,7.60
2006,05,14,07,01,7.60
2006,05,14,07,02,7.70
2006,05,14,07,03,7.70
2006,05,14,07,04,7.80
2006,05,14,07,05,7.90
2006,05,14,07,06,7.90
2006,05,14,07,07,8.00
2006,05,14,07,08,8.00
2006,05,14,07,09,8.10
2006,05,14,07,10,8.20
2006,05,14,07,11,8.20
2006,05,14,07,12,8.30
2006,05,14,07,13,8.30
2006,05,14,07,14,8.40
2006,05,14,07,15,8.50
2006,05,14,07,16,8.60
2006,05,14,07,17,8.70
2006,05,14,07,18,8.80
2006,05,14,07,19,8.90
2006,05,14,07,20,8.90
2006,05,14,07,21,9.10
2006,05,14,07,22,9.20
2006,05,14,07,23,9.30
2006,05,14,07,24,9.40
2006,05,14,07,25,9.60
2006,05,14,07,26,9.70
2006,05,14,07,27,9.80
2006,05,14,07,28,9.90
2006,05,14,07,29,9.90
2006,05,14,07,30,10.10
2006,05,14,07,31,10.10
2006,05,14,07,32,10.10
2006,05,14,07,33,10.20
2006,05,14,07,34,10.30
2006,05,14,07,35,10.40
2006,05,14,07,36,10.40
2006,05,14,07,37,10.40
2006,05,14,07,38,10.50
2006,05,14,07,39,10.60
2006,05,14,07,40,10.60
2006,05,14,07,41,10.60
2006,05,14,07,42,10.70
2006,05,14,07,43,10.70
2006,05,14,07,44,10.80
2006,05,14,07,45,10.80
2006,05,14,07,46,10.90
2006,05,14,07,47,10.90
2006,05,14,07,48,11.00
2006,05,14,07,49,11.10
2006,05,14,07,50,11.10
2006,05,14,07,51,11.10
2006,05,14,07,52,11.20
2006,05,14,07,53,11.20
2006,05,14,07,54,11.30
2006,05,14,07,55,11.30
2006,05,14,07,56,11.40
2006,05,14,07,57,11.40
2006,05,14,07,58,11.40
2006,05,14,07,59,11.40
2006,05,14,08,00,11.40
2006,05,14,08,01,11.50
2006,05,14,08,02,11.60
2006,05,14,08,03,11.60
2006,05,14,08,04,11.60
2006,05,14,08,05,11.70
2006,05,14,08,06,11.70
2006,05,14,08,07,11.80
2006,05,14,08,08,11.80
2006,05,14,08,09,11.80
2006,05,14,08,10,11.90
2006,05,14,08,11,12.00
2006,05,14,08,12,12.00
2006,05,14,08,13,12.10
2006,05,14,08,14,12.20
2006,05,14,08,15,12.30
2006,05,14,08,16,12.40
2006,05,14,08,17,12.50
2006,05,14,08,18,12.50
2006,05,14,08,19,12.60
2006,05,14,08,20,12.60
2006,05,14,08,21,12.60
2006,05,14,08,22,12.60
2006,05,14,08,23,12.60
2006,05,14,08,24,12.70
2006,05,14,08,25,12.70
2006,05,14,08,26,12.80
2006,05,14,08,27,12.80
2006,05,14,08,28,12.80
2006,05,14,08,29,12.80
2006,05,14,08,30,12.80
2006,05,14,08,31,12.90
2006,05,14,08,32,12.90
2006,05,14,08,33,12.90
2006,05,14,08,34,12.90
2006,05,14,08,35,12.90
2006,05,14,08,36,13.00
2006,05,14,08,37,13.00
2006,05,14,08,38,13.10
2006,05,14,08,39,13.10
2006,05,14,08,40,13.10
2006,05,14,08,41,13.10
2006,05,14,08,42,13.10
2006,05,14,08,43,13.10
2006,05,14,08,44,13.10
2006,05,14,08,45,13.20
2006,05,14,08,46,13.20
2006,05,14,08,47,13.30
2006,05,14,08,48,13.30
2006,05,14,08,49,13.40
2006,05,14,08,50,13.40
2006,05,14,08,51,13.40
2006,05,14,08,52,13.40
2006,05,14,08,53,13.50
2006,05,14,08,54,13.50
2006,05,14,08,55,13.50
2006,05,14,08,56,13.60
2006,05,14,08,57,13.60
2006,05,14,08,58,13.60
2006,05,14,08,59,13.60
2006,05,14,09,00,13.70
2006,05,14,09,01,13.70
2006,05,14,09,02,13.70
2006,05,14,09,03,13.70
2006,05,14,09,04,13.80
2006,05,14,09,05,13.90
2006,05,14,09,06,14.00
2006,05,14,09,07,14.00
2006,05,14,09,08,14.10
2006,05,14,09,09,14.10
2006,05,14,09,10,14.20
2006,05,14,09,11,14.30
2006,05,14,09,12,14.40
2006,05,14,09,13,14.40
2006,05,14,09,14,14.40
2006,05,14,09,15,14.40
2006,05,14,09,16,14.40
2006,05,14,09,17,14.40
2006,05,14,09,18,14.40
2006,05,14,09,19,14.40
2006,05,14,09,20,14.30
2006,05,14,09,21,14.20
2006,05,14,09,22,14.20
2006,05,14,09,23,14.10
2006,05,14,09,24,14.10
2006,05,14,09,25,14.10
2006,05,14,09,26,14.10
2006,05,14,09,27,14.20
2006,05,14,09,28,14.20
2006,05,14,09,29,14.10
2006,05,14,09,30,14.00
2006,05,14,09,31,13.90
2006,05,14,09,32,13.80
2006,05,14,09,33,13.80
2006,05,14,09,34,13.70
2006,05,14,09,35,13.70
2006,05,14,09,36,13.60
2006,05,14,09,37,13.50
2006,05,14,09,38,13.50
2006,05,14,09,39,13.40
2006,05,14,09,40,13.30
2006,05,14,09,41,13.30
2006,05,14,09,42,13.30
2006,05,14,09,43,13.30
2006,05,14,09,44,13.30
2006,05,14,09,45,13.30
2006,05,14,09,46,13.30
2006,05,14,09,47,13.30
2006,05,14,09,48,13.30
2006,05,14,09,49,13.30
2006,05,14,09,50,13.20
2006,05,14,09,51,13.20
2006,05,14,09,52,13.20
2006,05,14,09,53,13.20
2006,05,14,09,54,13.20
2006,05,14,09,55,13.20
2006,05,14,09,56,13.20
2006,05,14,09,57,13.30
2006,05,14,09,58,13.30
2006,05,14,09,59,13.30
2006,05,14,10,00,13.30
2006,05,14,10,01,13.40
2006,05,14,10,02,13.50
2006,05,14,10,03,13.50
2006,05,14,10,04,13.50
2006,05,14,10,05,13.50
2006,05,14,10,06,13.60
2006,05,14,10,07,13.60
2006,05,14,10,08,13.70
2006,05,14,10,09,13.70
2006,05,14,10,10,13.80
2006,05,14,10,11,13.80
2006,05,14,10,12,13.80
2006,05,14,10,13,13.80
2006,05,14,10,14,13.90
2006,05,14,10,15,13.90
2006,05,14,10,16,13.80
2006,05,14,10,17,13.90
2006,05,14,10,18,13.90
2006,05,14,10,19,13.90
2006,05,14,10,20,13.90
2006,05,14,10,21,13.90
2006,05,14,10,22,14.00
2006,05,14,10,23,14.00
2006,05,14,10,24,14.00
2006,05,14,10,25,14.10
2006,05,14,10,26,14.20
2006,05,14,10,27,14.20
2006,05,14,10,28,14.20
2006,05,14,10,29,14.20
2006,05,14,10,30,14.20
2006,05,14,10,31,14.20
2006,05,14,10,32,14.30
2006,05,14,10,33,14.30
2006,05,14,10,34,14.30
2006,05,14,10,35,14.30
2006,05,14,10,36,14.30
2006,05,14,10,37,14.30
2006,05,14,10,38,14.40
2006,05,14,10,39,14.40
2006,05,14,10,40,14.50
2006,05,14,10,41,14.60
2006,05,14,10,42,14.60
2006,05,14,10,43,14.70
2006,05,14,10,44,14.80
2006,05,14,10,45,14.80
2006,05,14,10,46,14.80
2006,05,14,10,47,14.80
2006,05,14,10,48,14.90
2006,05,14,10,49,14.90
2006,05,14,10,50,15.00
2006,05,14,10,51,15.00
2006,05,14,10,52,15.20
2006,05,14,10,53,15.30
2006,05,14,10,54,15.30
2006,05,14,10,55,15.40
2006,05,14,10,56,15.50
2006,05,14,10,57,15.60
2006,05,14,10,58,15.70
2006,05,14,10,59,15.70
2006,05,14,11,00,15.70
2006,05,14,11,01,15.60
2006,05,14,11,02,15.60
2006,05,14,11,03,15.50
2006,05,14,11,04,15.50
2006,05,14,11,05,15.50
2006,05,14,11,06,15.50
2006,05,14,11,07,15.50
2006,05,14,11,08,15.60
2006,05,14,11,09,15.70
2006,05,14,11,10,15.70
2006,05,14,11,11,15.70
2006,05,14,11,12,15.70
2006,05,14,11,13,15.70
2006,05,14,11,14,15.70
2006,05,14,11,15,15.70
2006,05,14,11,16,15.60
2006,05,14,11,17,15.60
2006,05,14,11,18,15.60
2006,05,14,11,19,15.60
2006,05,14,11,20,15.60
2006,05,14,11,21,15.50
2006,05,14,11,22,15.60
2006,05,14,11,23,15.70
2006,05,14,11,24,15.80
2006,05,14,11,25,15.80
2006,05,14,11,26,15.70
2006,05,14,11,27,15.70
2006,05,14,11,28,15.80
2006,05,14,11,29,15.80
2006,05,14,11,30,15.90
2006,05,14,11,31,15.90
2006,05,14,11,32,15.90
2006,05,14,11,33,15.90
2006,05,14,11,34,15.90
2006,05,14,11,35,15.80
2006,05,14,11,36,15.80
2006,05,14,11,37,15.80
2006,05,14,11,38,15.80
2006,05,14,11,39,15.90
2006,05,14,11,40,15.90
2006,05,14,11,41,16.10
2006,05,14,11,42,16.20
2006,05,14,11,43,16.20
2006,05,14,11,44,16.20
2006,05,14,11,45,16.30
2006,05,14,11,46,16.40
2006,05,14,11,47,16.40
2006,05,14,11,48,16.40
2006,05,14,11,49,16.40
2006,05,14,11,50,16.40
2006,05,14,11,51,16.40
2006,05,14,11,52,16.40
2006,05,14,11,53,16.40
2006,05,14,11,54,16.40
2006,05,14,11,55,16.40
2006,05,14,11,56,16.40
2006,05,14,11,57,16.40
2006,05,14,11,58,16.40
2006,05,14,11,59,16.50
2006,05,14,12,00,16.60
2006,05,14,12,01,16.60
2006,05,14,12,02,16.60
2006,05,14,12,03,16.50
2006,05,14,12,04,16.50
2006,05,14,12,05,16.60
2006,05,14,12,06,16.60
2006,05,14,12,07,16.60
2006,05,14,12,08,16.50
2006,05,14,12,09,16.50
2006,05,14,12,10,16.60
2006,05,14,12,11,16.60
2006,05,14,12,12,16.70
2006,05,14,12,13,16.70
2006,05,14,12,14,16.70
2006,05,14,12,15,16.70
2006,05,14,12,16,16.70
2006,05,14,12,17,16.80
2006,05,14,12,18,16.90
2006,05,14,12,19,16.90
2006,05,14,12,20,16.90
2006,05,14,12,21,16.90
2006,05,14,12,22,16.90
2006,05,14,12,23,16.80
2006,05,14,12,24,16.90
2006,05,14,12,25,16.80
2006,05,14,12,26,16.90
2006,05,14,12,27,17.00
2006,05,14,12,28,17.00
2006,05,14,12,29,17.10
2006,05,14,12,30,17.20
2006,05,14,12,31,17.30
2006,05,14,12,32,17.30
2006,05,14,12,33,17.30
2006,05,14,12,34,17.30
2006,05,14,12,35,17.40
2006,05,14,12,36,17.50
2006,05,14,12,37,17.50
2006,05,14,12,38,17.50
2006,05,14,12,39,17.50
2006,05,14,12,40,17.50
2006,05,14,12,41,17.50
2006,05,14,12,42,17.60
2006,05,14,12,43,17.60
2006,05,14,12,44,17.60
2006,05,14,12,45,17.50
2006,05,14,12,46,17.50
2006,05,14,12,47,17.50
2006,05,14,12,48,17.60
2006,05,14,12,49,17.70
2006,05,14,12,50,17.60
2006,05,14,12,51,17.60
2006,05,14,12,52,17.50
2006,05,14,12,53,17.40
2006,05,14,12,54,17.40
2006,05,14,12,55,17.40
2006,05,14,12,56,17.50
2006,05,14,12,57,17.50
2006,05,14,12,58,17.60
2006,05,14,12,59,17.70
2006,05,14,13,00,17.70
2006,05,14,13,01,17.80
2006,05,14,13,02,17.80
2006,05,14,13,03,17.70
2006,05,14,13,04,17.80
2006,05,14,13,05,17.80
2006,05,14,13,06,17.90
2006,05,14,13,07,17.90
2006,05,14,13,08,17.90
2006,05,14,13,09,17.90
2006,05,14,13,10,17.90
2006,05,14,13,11,17.90
2006,05,14,13,12,17.90
2006,05,14,13,13,17.90
2006,05,14,13,14,17.90
2006,05,14,13,15,18.00
2006,05,14,13,16,18.00
2006,05,14,13,17,17.90
2006,05,14,13,18,17.90
2006,05,14,13,19,17.90
2006,05,14,13,20,17.90
2006,05,14,13,21,17.90
2006,05,14,13,22,17.90
2006,05,14,13,23,17.90
2006,05,14,13,24,17.90
2006,05,14,13,25,18.00
2006,05,14,13,26,18.10
2006,05,14,13,27,18.20
2006,05,14,13,28,18.20
2006,05,14,13,29,18.20
2006,05,14,13,30,18.20
2006,05,14,13,31,18.20
2006,05,14,13,32,18.20
2006,05,14,13,33,18.20
2006,05,14,13,34,18.20
2006,05,14,13,35,18.30
2006,05,14,13,36,18.30
2006,05,14,13,37,18.30
2006,05,14,13,38,18.20
2006,05,14,13,39,18.20
2006,05,14,13,40,18.10
2006,05,14,13,41,18.20
2006,05,14,13,42,18.20
2006,05,14,13,43,18.20
2006,05,14,13,44,18.20
2006,05,14,13,45,18.20
2006,05,14,13,46,18.20
2006,05,14,13,47,18.20
2006,05,14,13,48,18.20
2006,05,14,13,49,18.20
2006,05,14,13,50,18.30
2006,05,14,13,51,18.30
2006,05,14,13,52,18.30
2006,05,14,13,53,18.30
2006,05,14,13,54,18.30
2006,05,14,13,55,18.30
2006,05,14,13,56,18.40
2006,05,14,13,57,18.50
2006,05,14,13,58,18.50
2006,05,14,13,59,18.50
2006,05,14,14,00,18.50
2006,05,14,14,01,18.50
2006,05,14,14,02,18.60
2006,05,14,14,03,18.60
2006,05,14,14,04,18.70
2006,05,14,14,05,18.60
2006,05,14,14,06,18.60
2006,05,14,14,07,18.50
2006,05,14,14,08,18.60
2006,05,14,14,09,18.60
2006,05,14,14,10,18.70
2006,05,14,14,11,18.70
2006,05,14,14,12,18.70
2006,05,14,14,13,18.70
2006,05,14,14,14,18.70
2006,05,14,14,15,18.70
2006,05,14,14,16,18.70
2006,05,14,14,17,18.80
2006,05,14,14,18,18.80
2006,05,14,14,19,18.80
2006,05,14,14,20,18.80
2006,05,14,14,21,18.80
2006,05,14,14,22,18.90
2006,05,14,14,23,18.90
2006,05,14,14,24,18.90
2006,05,14,14,25,18.90
2006,05,14,14,26,19.00
2006,05,14,14,27,19.10
2006,05,14,14,28,19.10
2006,05,14,14,29,19.10
2006,05,14,14,30,19.10
2006,05,14,14,31,19.10
2006,05,14,14,32,19.10
2006,05,14,14,33,19.20
2006,05,14,14,34,19.30
2006,05,14,14,35,19.40
2006,05,14,14,36,19.40
2006,05,14,14,37,19.40
2006,05,14,14,38,19.40
2006,05,14,14,39,19.50
2006,05,14,14,40,19.40
2006,05,14,14,41,19.40
2006,05,14,14,42,19.40
2006,05,14,14,43,19.20
2006,05,14,14,44,19.10
2006,05,14,14,45,19.10
2006,05,14,14,46,19.10
2006,05,14,14,47,19.10
2006,05,14,14,48,19.10
2006,05,14,14,49,19.10
2006,05,14,14,50,19.10
2006,05,14,14,51,19.10
2006,05,14,14,52,19.20
2006,05,14,14,53,19.30
2006,05,14,14,54,19.30
2006,05,14,14,55,19.30
2006,05,14,14,56,19.40
2006,05,14,14,57,19.40
2006,05,14,14,58,19.40
2006,05,14,14,59,19.40
2006,05,14,15,00,19.30
2006,05,14,15,01,19.30
2006,05,14,15,02,19.30
2006,05,14,15,03,19.30
2006,05,14,15,04,19.30
2006,05,14,15,05,19.40
2006,05,14,15,06,19.40
2006,05,14,15,07,19.50
2006,05,14,15,08,19.50
2006,05,14,15,09,19.60
2006,05,14,15,10,19.70
2006,05,14,15,11,19.80
2006,05,14,15,12,19.90
2006,05,14,15,13,20.00
2006,05,14,15,14,20.10
2006,05,14,15,15,20.10
2006,05,14,15,16,20.10
2006,05,14,15,17,20.10
2006,05,14,15,18,20.10
2006,05,14,15,19,20.10
2006,05,14,15,20,20.10
2006,05,14,15,21,20.10
2006,05,14,15,22,20.10
2006,05,14,15,23,20.10
2006,05,14,15,24,20.10
2006,05,14,15,25,20.10
2006,05,14,15,26,20.20
2006,05,14,15,27,20.30
2006,05,14,15,28,20.20
2006,05,14,15,29,20.20
2006,05,14,15,30,20.10
2006,05,14,15,31,20.10
2006,05,14,15,32,20.10
2006,05,14,15,33,20.10
2006,05,14,15,34,20.10
2006,05,14,15,35,20.10
2006,05,14,15,36,20.10
2006,05,14,15,37,20.10
2006,05,14,15,38,20.10
2006,05,14,15,39,20.10
2006,05,14,15,40,20.10
2006,05,14,15,41,20.10
2006,05,14,15,42,20.10
2006,05,14,15,43,20.20
2006,05,14,15,44,20.20
2006,05,14,15,45,20.20
2006,05,14,15,46,20.20
2006,05,14,15,47,20.20
2006,05,14,15,48,20.20
2006,05,14,15,49,20.30
2006,05,14,15,50,20.50
2006,05,14,15,51,20.50
2006,05,14,15,52,20.50
2006,05,14,15,53,20.60
2006,05,14,15,54,20.60
2006,05,14,15,55,20.50
2006,05,14,15,56,20.50
2006,05,14,15,57,20.50
2006,05,14,15,58,20.50
2006,05,14,15,59,20.40
2006,05,14,16,00,20.50
2006,05,14,16,01,20.50
2006,05,14,16,02,20.60
2006,05,14,16,03,20.60
2006,05,14,16,04,20.70
2006,05,14,16,05,20.70
2006,05,14,16,06,20.50
2006,05,14,16,07,20.50
2006,05,14,16,08,20.40
2006,05,14,16,09,20.40
2006,05,14,16,10,20.40
2006,05,14,16,11,20.40
2006,05,14,16,12,20.30
2006,05,14,16,13,20.30
2006,05,14,16,14,20.30
2006,05,14,16,15,20.30
2006,05,14,16,16,20.30
2006,05,14,16,17,20.40
2006,05,14,16,18,20.40
2006,05,14,16,19,20.50
2006,05,14,16,20,20.50
2006,05,14,16,21,20.60
2006,05,14,16,22,20.80
2006,05,14,16,23,20.80
2006,05,14,16,24,20.90
2006,05,14,16,25,20.80
2006,05,14,16,26,20.70
2006,05,14,16,27,20.50
2006,05,14,16,28,20.40
2006,05,14,16,29,20.40
2006,05,14,16,30,20.40
2006,05,14,16,31,20.40
2006,05,14,16,32,20.40
2006,05,14,16,33,20.30
2006,05,14,16,34,20.30
2006,05,14,16,35,20.40
2006,05,14,16,36,20.40
2006,05,14,16,37,20.40
2006,05,14,16,38,20.50
2006,05,14,16,39,20.50
2006,05,14,16,40,20.60
2006,05,14,16,41,20.60
2006,05,14,16,42,20.70
2006,05,14,16,43,20.70
2006,05,14,16,44,20.60
2006,05,14,16,45,20.60
2006,05,14,16,46,20.60
2006,05,14,16,47,20.70
2006,05,14,16,48,20.60
2006,05,14,16,49,20.60
2006,05,14,16,50,20.60
2006,05,14,16,51,20.60
2006,05,14,16,52,20.70
2006,05,14,16,53,20.80
2006,05,14,16,54,20.90
2006,05,14,16,55,20.90
2006,05,14,16,56,20.90
2006,05,14,16,57,20.90
2006,05,14,16,58,20.90
2006,05,14,16,59,20.90
2006,05,14,17,00,20.80
2006,05,14,17,01,20.80
2006,05,14,17,02,20.70
2006,05,14,17,03,20.70
2006,05,14,17,04,20.70
2006,05,14,17,05,20.70
2006,05,14,17,06,20.70
2006,05,14,17,07,20.60
2006,05,14,17,08,20.60
2006,05,14,17,09,20.60
2006,05,14,17,10,20.60
2006,05,14,17,11,20.60
2006,05,14,17,12,20.60
2006,05,14,17,13,20.50
2006,05,14,17,14,20.50
2006,05,14,17,15,20.50
2006,05,14,17,16,20.50
2006,05,14,17,17,20.50
2006,05,14,17,18,20.50
2006,05,14,17,19,20.50
2006,05,14,17,20,20.50
2006,05,14,17,21,20.50
2006,05,14,17,22,20.50
2006,05,14,17,23,20.60
2006,05,14,17,24,20.60
2006,05,14,17,25,20.70
2006,05,14,17,26,20.70
2006,05,14,17,27,20.70
2006,05,14,17,28,20.80
2006,05,14,17,29,20.80
2006,05,14,17,30,20.90
2006,05,14,17,31,20.90
2006,05,14,17,32,20.90
2006,05,14,17,33,20.90
2006,05,14,17,34,21.00
2006,05,14,17,35,21.00
2006,05,14,17,36,21.00
2006,05,14,17,37,20.90
2006,05,14,17,38,20.80